星链-36317(STARLINK-36317)
导读
STARLINK-36317是美国于2026年2月11日发射的星链卫星,隶属于SpaceX星链星座计划。星链计划旨在构建全球卫星互联网,为偏远地区、海上航空等场景提供高速宽带接入,该卫星的发射进一步扩充了星链低轨卫星星座的规模,提升星座覆盖与服务能力。
Basic Information
目录编号:
67736
目录名称:
STARLINK-36317
国际标识:
2026-026R
轨道中心:
EARTH
卫星名称:
星链-36317
卫星全名:
星链-36317(STARLINK-36317)
卫星状态:
在轨 (已飞行206 天)
发射日期:
2026-02-11 UTC
国别 :
美国
(US)
星等 :
--
Orbit Information
| 数据来源 | 国际轨道数据 |
| 星历时间: | 2026-09-04T17:29:21+0800 20小时前 查看轨道信息 |
| 半长轴: | 6843.612km |
| 偏心率: | 0.0001408 |
| 轨道倾角: | 97.286° |
| 近地点辐角 | 98.467° |
| 升交点赤经 | 299.474° |
| 平近点角 | 261.673° |
| 近地点: | 464.511km |
| 远地点: | 466.439km |
| 周期: | 93.905分钟 |
| 每日圈数: | 15.334681 |
Detailed Information
固有亮度:
5
最大亮度:
2.5
卫星平台:
Starlink V1.0
覆盖范围:
全球
运营商:
太空探索技术公司
运营商所在国:
美国
制造商(研发单位):
太空探索技术公司
制造商所在国:
美国
使用方式:
暂无
Satellite Introduction
Starlink 计划是 SpaceX 推出的全球卫星互联网项目,通过发射低轨道卫星,为全球尤其是偏远地区提供高速、低延迟的互联网服务。自 2019 年起,Starlink 已部署数千颗卫星,旨在缩小全球数字鸿沟,推动互联网普及。该项目还为军事、航空等行业提供通信支持,带来广泛经济效益。
2D Orbit Map
3D Orbit Map
Orbit Altitude Analysis Chart
Orbit Inclination Analysis Chart
Orbit Comprehensive Analysis Chart
View Comprehensive ChartConjunction Data List
| Event ID | Objects | TCA | Miss Dist (km) | Collision Risk Probability | Collision Risk Index (CRI) | Action |
|---|---|---|---|---|---|---|
| CDM_260906-100606-178106-773621 |
OBJECT AY
(61781)
STARLINK-36317
(67736) | 2026-09-06T 10:06:22+0000 |
2.542 km
极远距离 | 1.726945E-6 低风险 | 0.4 | |
| CDM_260903-135904-779306-773621 |
STARLINK-2338
(47793)
STARLINK-36317
(67736) | 2026-09-03T 13:59:44+0000 |
2.732 km
极远距离 | 1.510351E-6 低风险 | 0.39 |

